Nome, AK

11:06 PM AKDT on June 27, 2017 (GMT -0800)
Nome

Weather History for PAOM - January, 2014

Change the Weather History Date:

Friday, January 3, 2014

  Actual Average Record
Temperature  
Mean Temperature 21 °F 6 °F  
Max Temperature 29 °F 14 °F 41 °F (1995)
Min Temperature 13 °F -2 °F -37 °F (2012)
Degree Days  
Heating Degree Days 44 59  
Month to date heating degree days 143 177  
Since 1 July heating degree days 5507 5990  
Cooling Degree Days 0 0  
Month to date cooling degree days 0 0  
Year to date cooling degree days 0 0  
Moisture  
Dew Point 22 °F    
Average Humidity 0    
Maximum Humidity 0    
Minimum Humidity 0    
Precipitation  
Precipitation T in 0.04 in 0.34 in (1947)
Month to date precipitation T 0.10  
Year to date precipitation T 0.10  
Snow  
Snow T in 0.40 in 5.00 in (1911)
Month to date snowfall 0.1 1.3  
Since 1 July snowfall 33.1 33.1  
Snow Depth 15.00 in    
Sea Level Pressure  
Sea Level Pressure 29.80 in    
Wind  
Wind Speed 9 mph (NE)    
Max Wind Speed 22 mph    
Max Gust Speed 30 mph    
Visibility 9 miles    
Events Snow    
T = Trace of Precipitation, MM = Missing Value Source: NWS Daily Summary

Daily Weather History Graph

Daily Weather History Graph

Search for Another Location

Airport or City:

Trip Planner

Search our weather history database for the weather conditions in past years. The results will help you decide how hot, cold, wet, or windy it might be!

Date:

Astronomy

Jan. 03, 2014 Rise Set
Actual Time 11:56 AM AKST 4:16 PM AKST
Civil Twilight 10:38 AM AKST 5:34 PM AKST
Nautical Twilight 9:29 AM AKST 6:43 PM AKST
Astronomical Twilight 8:29 AM AKST 7:43 PM AKST
Moon 11:59 AM AKST (1/3) 9:21 PM AKST (1/3)
Length of Visible Light 6h 55m
Length of Day
4h 20m
Waxing Crescent, 9% of the Moon is Illuminated
Jan 3
Waxing Crescent
Jan 7
First Quarter
Jan 15
Full
Jan 23
Last Quarter
Jan 30
New

Hourly Weather History & Observations

Time (AKST) Temp. Windchill Dew Point Humidity Pressure Visibility Wind Dir Wind Speed Gust Speed Precip Events Conditions
12:53 AM 21.9 °F 7.8 °F 18.0 °F 85% 29.67 in 9.0 mi East 17.3 mph - 0.00 in Snow Light Snow
1:53 AM 23.0 °F 9.6 °F 19.0 °F 85% 29.67 in 9.0 mi East 16.1 mph 24.2 mph 0.00 in Snow Light Snow
2:15 AM 23.0 °F 8.0 °F 19.4 °F 86% 29.66 in 8.0 mi East 20.7 mph 26.5 mph 0.00 in Snow Light Snow
2:53 AM 23.0 °F 8.3 °F 19.9 °F 88% 29.67 in 7.0 mi ENE 19.6 mph 25.3 mph 0.00 in Snow Light Snow
3:53 AM 24.1 °F 11.0 °F 21.0 °F 88% 29.67 in 10.0 mi ENE 16.1 mph 21.9 mph N/A   Overcast
4:01 AM 24.8 °F 11.5 °F 21.2 °F 86% 29.67 in 10.0 mi ENE 17.3 mph - N/A   Overcast
4:12 AM 24.8 °F 11.9 °F 21.2 °F 86% 29.67 in 10.0 mi ENE 16.1 mph - N/A   Overcast
4:53 AM 25.0 °F 11.7 °F 23.0 °F 92% 29.66 in 10.0 mi ENE 17.3 mph 25.3 mph N/A   Overcast
5:04 AM 24.8 °F 11.5 °F 23.0 °F 93% 29.66 in 10.0 mi ENE 17.3 mph - N/A   Overcast
5:40 AM 24.8 °F 11.9 °F 23.0 °F 93% 29.66 in 5.0 mi ENE 16.1 mph 23.0 mph 0.00 in Snow Light Snow
5:53 AM 25.0 °F 12.6 °F 23.0 °F 92% 29.67 in 5.0 mi ENE 15.0 mph - 0.00 in Snow Light Snow
6:33 AM 26.6 °F 14.7 °F 24.8 °F 93% 29.67 in 7.0 mi ENE 15.0 mph - 0.00 in   Overcast
6:53 AM 26.1 °F 14.0 °F 24.1 °F 92% 29.67 in 8.0 mi ENE 15.0 mph - 0.00 in   Overcast
7:53 AM 27.0 °F 15.6 °F 24.1 °F 89% 29.68 in 10.0 mi ENE 13.8 mph - N/A   Overcast
8:41 AM 26.6 °F 16.2 °F 24.8 °F 93% 29.69 in 10.0 mi ENE 11.5 mph 19.6 mph N/A   Overcast
8:53 AM 27.0 °F 16.1 °F 24.1 °F 89% 29.69 in 10.0 mi ENE 12.7 mph - N/A   Overcast
9:51 AM 26.6 °F 15.7 °F 24.8 °F 93% 29.70 in 10.0 mi NE 12.7 mph - N/A   Overcast
9:53 AM 27.0 °F 16.7 °F 25.0 °F 92% 29.71 in 10.0 mi NE 11.5 mph - N/A   Overcast
10:53 AM 27.0 °F 16.1 °F 24.1 °F 89% 29.73 in 10.0 mi NNE 12.7 mph - N/A   Overcast
11:53 AM 28.0 °F 20.0 °F 24.1 °F 85% 29.75 in 10.0 mi North 8.1 mph - N/A   Overcast
12:51 PM 28.4 °F 19.7 °F 24.8 °F 86% 29.78 in 10.0 mi NNE 9.2 mph - N/A   Overcast
12:53 PM 28.0 °F 19.3 °F 24.1 °F 85% 29.78 in 10.0 mi NNE 9.2 mph - N/A   Overcast
1:51 PM 28.4 °F 19.7 °F 24.8 °F 86% 29.80 in 10.0 mi North 9.2 mph - N/A   Overcast
1:53 PM 28.0 °F 19.3 °F 25.0 °F 88% 29.81 in 10.0 mi North 9.2 mph - N/A   Overcast
2:53 PM 28.9 °F 20.4 °F 25.0 °F 85% 29.84 in 10.0 mi North 9.2 mph - N/A   Overcast
3:53 PM 27.0 °F 21.6 °F 24.1 °F 89% 29.86 in 8.0 mi North 4.6 mph - 0.00 in Snow Light Snow
4:28 PM 26.6 °F - 24.8 °F 93% 29.88 in 10.0 mi Calm Calm - 0.00 in   Overcast
4:53 PM 27.0 °F 23.0 °F 25.0 °F 92% 29.88 in 10.0 mi NNW 3.5 mph - 0.00 in   Overcast
5:53 PM 24.1 °F 17.0 °F 24.1 °F 100% 29.92 in 10.0 mi West 5.8 mph - N/A   Overcast
6:53 PM 23.0 °F 15.8 °F 21.9 °F 96% 29.94 in 10.0 mi West 5.8 mph - N/A   Overcast
7:51 PM 19.4 °F - 17.6 °F 93% 29.96 in 10.0 mi Calm Calm - N/A   Scattered Clouds
7:53 PM 19.0 °F - 18.0 °F 96% 29.96 in 10.0 mi Calm Calm - N/A   Scattered Clouds
8:33 PM 21.2 °F - 19.4 °F 93% 29.98 in 10.0 mi Calm Calm - N/A   Mostly Cloudy
8:53 PM 18.0 °F - 18.0 °F 100% 29.99 in 10.0 mi Calm Calm - N/A   Overcast
9:22 PM 17.6 °F - 17.6 °F 100% 29.99 in 10.0 mi Calm Calm - N/A   Scattered Clouds
9:53 PM 16.0 °F - 14.0 °F 92% 30.01 in 10.0 mi Calm Calm - N/A   Scattered Clouds
10:53 PM 15.1 °F - 14.0 °F 95% 30.03 in 10.0 mi Calm Calm - N/A   Scattered Clouds
11:51 PM 15.8 °F - 12.2 °F 86% 30.05 in 10.0 mi Calm Calm - N/A   Mostly Cloudy
11:53 PM 15.1 °F - 12.9 °F 91% 30.05 in 10.0 mi Calm Calm - N/A   Mostly Cloudy